Hourly Data Report for October 25, 2015

All times are specified in Local Standard Time (LST). Add 1 hour to adjust for Daylight Saving Time where and when it is observed.

POND INLET A
NUNAVUT

72°41'22.000" N
77°58'08.000" W
61.60 m
2403206
71095
YIO

Download Data

Hourly Data (October 2015)
Hourly Data Report for October 25, 2015
Temp Definition
°C
Dew Point Temp Definition
°C
Rel Hum Definition
%
Wind Dir Definition
10's deg

Wind Spd Definition
km/h
Visibility Definition
km
Stn Press Definition
kPa
Hmdx Definition


Wind Chill Definition


Weather Definition


TIME
00:00 Legend Double Dagger -12.6 -18.3 63 9 17 16.1 98.18   -20 LegendNANA
01:00 Legend Double Dagger -13.3 -19.3 61 10 18 16.1 98.15   -22 LegendNANA
02:00 Legend Double Dagger -11.7 -18.0 60 7 22 16.1 98.12   -20 LegendNANA
03:00 Legend Double Dagger -12.3 -18.2 62 11 18 16.1 98.11   -20 LegendNANA
04:00 Legend Double Dagger -12.9 -18.0 66 11 15 16.1 98.11   -20 LegendNANA
05:00 Legend Double Dagger -12.1 -16.4 71 12 5 16.1 98.11   -15 LegendNANA
06:00 Legend Double Dagger -12.4 -15.9 76 14 13 16.1 98.10   -19 LegendNANA
07:00 Legend Double Dagger -11.9 -16.9 67 11 11 16.1 98.10   -18 Snow
08:00 Legend Double Dagger -12.0 -17.1 66 11 9 16.1 98.11   -17 LegendNANA
09:00 Legend Double Dagger -12.0 -16.9 67 12 11 16.1 98.10   -18 LegendNANA
10:00 Legend Double Dagger -11.7 -15.4 75 18 11 16.1 98.09   -18 Snow
11:00 Legend Double Dagger -11.0 -14.8 74 LegendMM 4 16.1 98.12   -13 LegendNANA
12:00 Legend Double Dagger -12.3 -15.5 77 20 9 16.1 98.11   -18 LegendNANA
13:00 Legend Double Dagger -11.8 -15.4 75 17 5 16.1 98.14   -15 LegendNANA
14:00 Legend Double Dagger -11.6 -15.5 73 15 15 16.1 98.13   -19 LegendNANA
15:00 Legend Double Dagger -14.1 -17.5 76 15 11 16.1 98.13   -21 LegendNANA
16:00 Legend Double Dagger -13.4 -17.4 73 13 11 16.1 98.16   -20 LegendNANA
17:00 Legend Double Dagger -13.7 -17.8 72 16 11 16.1 98.19   -20 LegendNANA
18:00 Legend Double Dagger -14.5 -18.4 73 LegendMM 15 16.1 98.22   -22 LegendNANA
19:00 Legend Double Dagger -13.1 -16.7 75 15 21 16.1 98.23   -22 LegendNANA
20:00 Legend Double Dagger -13.3 -16.8 75 17 17 16.1 98.24   -21 LegendNANA
21:00 Legend Double Dagger -15.0 -18.4 76 14 18 16.1 98.25   -24 LegendNANA
22:00 Legend Double Dagger -13.5 -16.9 76 13 21 16.1 98.23   -22 LegendNANA
23:00 Legend Double Dagger -15.3 -18.6 76 14 21 16.1 98.22   -25 LegendNANA

Notes on Data Quality.

Legend

  • E = Estimated
  • M = Missing
  • NA = Not Available
  • ‡ = Partner data that is not subject to review by the National Climate Archives
Date modified: